Location: Songkhla
(7.2000°N, 100.6000°E)
Time: 13:48:21
(UTC+07:00)

LAPAN A2 - All Passes

Search period start: 14 April 2024 00:00
Search period end: 24 April 2024 00:00
Orbit: 627 x 646 km, 6.0° (Epoch: 12 April)

Date Brightness Start Highest point End Pass type
(mag) Time Alt. Az. Time Alt. Az. Time Alt. Az.
14 Apr - 00:08:17 10° W 00:13:04 74° S 00:17:49 10° E night (unlit)
14 Apr - 01:52:41 10° W 01:57:23 61° S 02:02:05 10° ESE night (unlit)
14 Apr - 03:37:11 10° WSW 03:41:43 44° S 03:46:12 10° ESE visible
14 Apr - 05:21:53 10° WSW 05:26:02 30° S 05:30:10 10° SE visible
14 Apr - 07:06:48 10° SW 07:10:25 22° S 07:14:01 10° SE daylight
14 Apr - 08:51:50 10° SW 08:54:53 17° S 08:57:57 10° SE daylight
14 Apr - 10:36:38 10° SW 10:39:25 15° S 10:42:12 10° SE daylight
14 Apr - 12:20:57 10° SW 12:23:56 17° S 12:26:58 10° SE daylight
14 Apr - 14:04:53 10° SW 14:08:25 21° S 14:11:59 10° SE daylight
14 Apr - 15:48:44 10° SW 15:52:50 29° S 15:56:56 10° ESE daylight
14 Apr - 17:32:41 10° WSW 17:37:10 41° S 17:41:41 10° ESE daylight
14 Apr - 19:16:48 10° WSW 19:21:29 58° S 19:26:12 10° E visible
14 Apr - 21:01:03 10° W 21:05:49 73° S 21:10:36 10° E visible
14 Apr - 22:45:23 10° W 22:50:11 77° S 22:54:58 10° E night (unlit)
15 Apr - 00:29:46 10° W 00:34:32 69° S 00:39:16 10° E night (unlit)
15 Apr - 02:14:12 10° W 02:18:51 52° S 02:23:28 10° ESE night (unlit)
15 Apr - 03:58:48 10° WSW 04:03:11 36° S 04:07:31 10° ESE visible
15 Apr - 05:43:38 10° WSW 05:47:32 25° S 05:51:25 10° SE visible
15 Apr - 07:28:38 10° SW 07:31:57 19° S 07:35:16 10° SE daylight
15 Apr - 09:13:36 10° SW 09:16:27 16° S 09:19:19 10° SE daylight
15 Apr - 10:58:09 10° SW 11:00:59 16° S 11:03:49 10° SE daylight
15 Apr - 12:42:15 10° SW 12:45:30 18° S 12:48:45 10° SE daylight
15 Apr - 14:26:07 10° SW 14:29:56 24° S 14:33:46 10° ESE daylight
15 Apr - 16:10:01 10° WSW 16:14:18 34° S 16:18:37 10° ESE daylight
15 Apr - 17:54:02 10° WSW 17:58:38 50° S 18:03:15 10° E daylight
15 Apr - 19:38:13 10° WSW 19:42:57 67° S 19:47:42 10° E visible
15 Apr - 21:22:31 10° W 21:27:17 77° S 21:32:05 10° E visible
15 Apr - 23:06:51 10° W 23:11:39 74° S 23:16:25 10° E night (unlit)
16 Apr - 00:51:16 10° W 00:55:59 61° S 01:00:41 10° ESE night (unlit)
16 Apr - 02:35:46 10° WSW 02:40:18 43° S 02:44:50 10° ESE night (unlit)
16 Apr - 04:20:29 10° WSW 04:24:39 30° S 04:28:48 10° SE visible
16 Apr - 06:05:24 10° SW 06:09:02 22° S 06:12:39 10° SE daylight
16 Apr - 07:50:26 10° SW 07:53:30 17° S 07:56:34 10° SE daylight
16 Apr - 09:35:15 10° SW 09:38:02 15° S 09:40:48 10° SE daylight
16 Apr - 11:19:33 10° SW 11:22:34 17° S 11:25:34 10° SE daylight
16 Apr - 13:03:30 10° SW 13:07:02 21° S 13:10:35 10° SE daylight
16 Apr - 14:47:21 10° SW 14:51:26 29° S 14:55:31 10° ESE daylight
16 Apr - 16:31:18 10° WSW 16:35:46 42° S 16:40:15 10° ESE daylight
16 Apr - 18:15:25 10° WSW 18:20:05 59° S 18:24:47 10° E daylight
16 Apr - 19:59:39 10° W 20:04:25 73° S 20:09:11 10° E visible
16 Apr - 21:43:58 10° W 21:48:45 77° S 21:53:33 10° E visible
16 Apr - 23:28:20 10° W 23:33:06 68° S 23:37:52 10° E night (unlit)
17 Apr - 01:12:47 10° W 01:17:26 52° S 01:22:05 10° ESE night (unlit)
17 Apr - 02:57:23 10° WSW 03:01:46 36° S 03:06:08 10° ESE visible
17 Apr - 04:42:13 10° WSW 04:46:08 25° S 04:50:02 10° SE visible
17 Apr - 06:27:13 10° SW 06:30:34 19° S 06:33:54 10° SE daylight
17 Apr - 08:12:12 10° SW 08:15:04 16° S 08:17:57 10° SE daylight
17 Apr - 09:56:46 10° SW 09:59:36 16° S 10:02:27 10° SE daylight
17 Apr - 11:40:52 10° SW 11:44:07 18° S 11:47:22 10° SE daylight
17 Apr - 13:24:44 10° SW 13:28:33 24° S 13:32:22 10° ESE daylight
17 Apr - 15:08:37 10° WSW 15:12:55 35° S 15:17:12 10° ESE daylight
17 Apr - 16:52:39 10° WSW 16:57:13 50° S 17:01:49 10° E daylight
17 Apr - 18:36:49 10° W 18:41:32 67° S 18:46:16 10° E visible
17 Apr - 20:21:06 10° W 20:25:52 77° S 20:30:39 10° E visible
17 Apr - 22:05:27 10° W 22:10:14 74° S 22:15:00 10° E night (unlit)
17 Apr - 23:49:50 10° W 23:54:33 60° S 23:59:17 10° ESE night (unlit)
18 Apr - 01:34:21 10° WSW 01:38:53 43° S 01:43:26 10° ESE night (unlit)
18 Apr - 03:19:03 10° WSW 03:23:14 30° S 03:27:24 10° SE visible
18 Apr - 05:03:59 10° SW 05:07:38 22° S 05:11:16 10° SE visible
18 Apr - 06:49:01 10° SW 06:52:06 17° S 06:55:11 10° SE daylight
18 Apr - 08:33:50 10° SW 08:36:39 16° S 08:39:26 10° SE daylight
18 Apr - 10:18:10 10° SW 10:21:11 17° S 10:24:11 10° SE daylight
18 Apr - 12:02:07 10° SW 12:05:39 21° S 12:09:11 10° SE daylight
18 Apr - 13:45:59 10° SW 13:50:02 29° S 13:54:07 10° ESE daylight
18 Apr - 15:29:55 10° WSW 15:34:22 42° S 15:38:49 10° ESE daylight
18 Apr - 17:14:02 10° WSW 17:18:40 59° S 17:23:20 10° E daylight
18 Apr - 18:58:16 10° W 19:03:00 73° S 19:07:45 10° E visible
18 Apr - 20:42:34 10° W 20:47:20 77° S 20:52:07 10° E visible
18 Apr - 22:26:55 10° W 22:31:41 68° S 22:36:27 10° E night (unlit)
19 Apr - 00:11:21 10° W 00:16:00 51° S 00:20:40 10° ESE night (unlit)
19 Apr - 01:55:57 10° WSW 02:00:21 36° S 02:04:44 10° ESE night (unlit)
19 Apr - 03:40:47 10° WSW 03:44:43 25° S 03:48:39 10° SE visible
19 Apr - 05:25:48 10° SW 05:29:10 19° S 05:32:31 10° SE visible
19 Apr - 07:10:47 10° SW 07:13:41 16° S 07:16:34 10° SE daylight
19 Apr - 08:55:22 10° SW 08:58:13 16° S 09:01:04 10° SE daylight
19 Apr - 10:39:28 10° SW 10:42:43 18° S 10:45:59 10° SE daylight
19 Apr - 12:23:21 10° SW 12:27:09 24° S 12:30:58 10° ESE daylight
19 Apr - 14:07:14 10° WSW 14:11:30 35° S 14:15:47 10° ESE daylight
19 Apr - 15:51:16 10° WSW 15:55:49 50° S 16:00:24 10° E daylight
19 Apr - 17:35:26 10° W 17:40:07 67° S 17:44:51 10° E daylight
19 Apr - 19:19:43 10° W 19:24:27 77° S 19:29:13 10° E visible
19 Apr - 21:04:02 10° W 21:08:48 74° S 21:13:34 10° E visible
19 Apr - 22:48:24 10° W 22:53:08 60° S 22:57:51 10° ESE night (unlit)
20 Apr - 00:32:55 10° WSW 00:37:28 43° S 00:42:01 10° ESE night (unlit)
20 Apr - 02:17:37 10° WSW 02:21:49 30° S 02:26:00 10° SE night (unlit)
20 Apr - 04:02:33 10° SW 04:06:13 22° S 04:09:53 10° SE visible
20 Apr - 05:47:36 10° SW 05:50:43 17° S 05:53:49 10° SE visible
20 Apr - 07:32:25 10° SW 07:35:15 16° S 07:38:04 10° SE daylight
20 Apr - 09:16:45 10° SW 09:19:47 17° S 09:22:49 10° SE daylight
20 Apr - 11:00:43 10° SW 11:04:16 21° S 11:07:48 10° SE daylight
20 Apr - 12:44:35 10° SW 12:48:39 29° S 12:52:43 10° ESE daylight
20 Apr - 14:28:32 10° WSW 14:32:58 42° S 14:37:24 10° ESE daylight
20 Apr - 16:12:38 10° WSW 16:17:16 59° S 16:21:55 10° E daylight
20 Apr - 17:56:52 10° W 18:01:35 73° S 18:06:19 10° E daylight
20 Apr - 19:41:10 10° W 19:45:54 77° S 19:50:40 10° E visible
20 Apr - 21:25:31 10° W 21:30:15 68° S 21:35:01 10° E visible
20 Apr - 23:09:56 10° W 23:14:34 51° S 23:19:14 10° ESE night (unlit)
21 Apr - 00:54:31 10° WSW 00:58:55 36° S 01:03:19 10° ESE night (unlit)
21 Apr - 02:39:21 10° WSW 02:43:18 25° S 02:47:14 10° SE night (unlit)
21 Apr - 04:24:22 10° SW 04:27:44 19° S 04:31:08 10° SE visible
21 Apr - 06:09:20 10° SW 06:12:17 16° S 06:15:12 10° SE daylight
21 Apr - 07:53:55 10° SW 07:56:50 16° S 07:59:42 10° SE daylight
21 Apr - 09:38:02 10° SW 09:41:20 19° S 09:44:37 10° SE daylight
21 Apr - 11:21:56 10° SW 11:25:46 25° S 11:29:35 10° ESE daylight
21 Apr - 13:05:50 10° WSW 13:10:06 35° S 13:14:23 10° ESE daylight
21 Apr - 14:49:52 10° WSW 14:54:25 50° S 14:58:58 10° E daylight
21 Apr - 16:34:03 10° W 16:38:43 67° S 16:43:24 10° E daylight
21 Apr - 18:18:19 10° W 18:23:02 77° S 18:27:46 10° E daylight
21 Apr - 20:02:38 10° W 20:07:22 74° S 20:12:08 10° E visible
21 Apr - 21:47:00 10° W 21:51:42 60° S 21:56:25 10° ESE night (unlit)
21 Apr - 23:31:30 10° WSW 23:36:02 43° S 23:40:35 10° ESE night (unlit)
22 Apr - 01:16:12 10° WSW 01:20:23 30° S 01:24:34 10° SE night (unlit)
22 Apr - 03:01:07 10° SW 03:04:47 22° S 03:08:28 10° SE night (unlit)
22 Apr - 04:46:09 10° SW 04:49:18 17° S 04:52:26 10° SE visible
22 Apr - 06:30:58 10° SW 06:33:50 16° S 06:36:42 10° SE daylight
22 Apr - 08:15:18 10° SW 08:18:23 17° S 08:21:27 10° SE daylight
22 Apr - 09:59:17 10° SW 10:02:52 21° S 10:06:26 10° SE daylight
22 Apr - 11:43:10 10° SW 11:47:15 29° S 11:51:19 10° ESE daylight
22 Apr - 13:27:08 10° WSW 13:31:34 42° S 13:36:00 10° ESE daylight
22 Apr - 15:11:15 10° WSW 15:15:52 59° S 15:20:29 10° E daylight
22 Apr - 16:55:29 10° W 17:00:10 74° S 17:04:53 10° E daylight
22 Apr - 18:39:47 10° W 18:44:29 77° S 18:49:14 10° E visible
22 Apr - 20:24:07 10° W 20:28:49 67° S 20:33:33 10° E visible
22 Apr - 22:08:31 10° W 22:13:09 51° S 22:17:47 10° ESE night (unlit)
22 Apr - 23:53:06 10° WSW 23:57:28 36° S 00:01:52 10° ESE night (unlit)
23 Apr - 01:37:55 10° WSW 01:41:52 25° S 01:45:48 10° SE night (unlit)
23 Apr - 03:22:55 10° SW 03:26:19 19° S 03:29:43 10° SE visible
23 Apr - 05:07:53 10° SW 05:10:51 16° S 05:13:48 10° SE visible
23 Apr - 06:52:28 10° SW 06:55:25 16° S 06:58:20 10° SE daylight
23 Apr - 08:36:36 10° SW 08:39:55 19° S 08:43:15 10° SE daylight
23 Apr - 10:20:30 10° SW 10:24:22 25° S 10:28:12 10° ESE daylight
23 Apr - 12:04:25 10° WSW 12:08:43 35° S 12:13:00 10° ESE daylight
23 Apr - 13:48:28 10° WSW 13:53:01 51° S 13:57:33 10° E daylight
23 Apr - 15:32:39 10° W 15:37:18 67° S 15:41:59 10° E daylight
23 Apr - 17:16:56 10° W 17:21:38 77° S 17:26:20 10° E daylight
23 Apr - 19:01:14 10° W 19:05:56 73° S 19:10:40 10° E visible
23 Apr - 20:45:36 10° W 20:50:16 59° S 20:54:58 10° ESE visible
23 Apr - 22:30:05 10° WSW 22:34:35 42° S 22:39:07 10° ESE night (unlit)
